Location: Владивосток
(43.1151°N, 131.8856°E)
Time: 18:16:46
(UTC+10:00)

CUBEBUG 2 - Pass Details

Date: 06 July 2022
Orbit: 584 x 693 km, 97.7° (Epoch: 07 August)

Event Time Altitude Azimuth Distance (km) Brightness Sun altitude
Rises 04:25:29 0° 10° (N) 2,848 ? -11.2°
Reaches altitude 10° 04:27:38 10° 7° (N) 1,954 ? -10.9°
Maximum altitude 04:31:50 69° 285° (WNW) 661 ? -10.4°
Enters shadow 04:36:00 11° 203° (SSW) 1,933 ? -9.9°
